Regional Weather Roundup
Issued by NWS

Home | Current Version | Previous Version | Graphics & Text | Print | Product List | Glossary On
Versions: 1 2 3 4 5 6 7 8 9 10 11 12 13 14 15 16 17 18 19 20 21 22 23 24 25 26 27 28 29 30 31 32 33 34 35 36 37 38 39 40 41 42 43 44 45 46 47 48 49 50
000
ASUS43 KFSD 171910
RWRSD

WEATHER ROUNDUP FOR SOUTH DAKOTA
NATIONAL WEATHER SERVICE SIOUX FALLS SD
100 PM CST WED DEC 17 2014

NOTE: "FAIR" INDICATES FEW OR NO CLOUDS BELOW 12,000 FEET WITH NO
SIGNIFICANT WEATHER AND/OR OBSTRUCTIONS TO VISIBILITY.


SDZ001>005-009-010-012>017-172000-
NORTHWEST AND NORTH CENTRAL SOUTH DAKOTA

CITY           SKY/WX    TMP DP  RH WIND       PRES   REMARKS
BUFFALO          N/A     19  16  88 SE13      29.96F WCI   6
FAITH            N/A     17  14  88 SE15      30.08F WCI   2
MOBRIDGE       CLOUDY    20  12  71 SE13      30.19F WCI   7
$$

SDZ012>016-024>037-041>051-057-063-072>074-172000-
SOUTHWEST AND SOUTH CENTRAL SOUTH DAKOTA

CITY           SKY/WX    TMP DP  RH WIND       PRES   REMARKS
RAPID CTY ARPT CLOUDY    22  19  89 SE8       30.00F WCI  12
PIERRE         CLOUDY    17  14  88 SE15      30.20F WCI   2
CUSTER         MOSUNNY   36  19  50 SW13G18   29.86F
ELLSWORTH AFB  CLOUDY    20  19  93 SE5       29.99F FOG     WCI  14
PHILIP         CLOUDY    24  18  77 SE14      30.11F WCI  12
PINE RIDGE     CLOUDY    27  21  78 S9        30.00F WCI  18
SPEARFISH      PTSUNNY   19  18  93 SE3       29.96F FOG
WINNER         CLOUDY    20  16  84 SE12      30.17F WCI   8
$$

SDZ004>011-016>023-039-040-172000-
NORTHEAST SOUTH DAKOTA

CITY           SKY/WX    TMP DP  RH WIND       PRES   REMARKS
ABERDEEN       PTSUNNY   16  10  77 SE3       30.31F
WATERTOWN      SUNNY     16  10  77 CALM      30.26F
SISSETON         N/A     13   8  81 N7        30.32  WCI   3
$$

SDZ017-020-022-023-036>040-048>070-172000-
SOUTHEAST SOUTH DAKOTA

CITY           SKY/WX    TMP DP  RH WIND       PRES   REMARKS
SIOUX FALLS    MOSUNNY   18  10  71 CALM      30.29F
HURON          SUNNY     13   9  84 E3        30.30F
CHAMBERLAIN    CLOUDY    17  14  87 SE10      30.23F WCI   5
MITCHELL       SUNNY     15  11  83 MISG      30.30F
YANKTON        MOSUNNY   16  10  79 CALM      30.30F
$$

ABBREVIATIONS USED IN REMARKS
   TC - TEMPERATURE IN CELSIUS
  WCI - WIND CHILL INDEX
   HX - HEAT INDEX
  VSB - VISIBILITY




USA.gov is the U.S. government's official web portal to all federal, state and local government web resources and services.